Location: Litvinovka
(48.6667°N, 34.3500°E)
Time: 11:09:09
(UTC+00:00)

NOSS 3-2 (C) - Pass Details

Date: 18 September 2020
Orbit: 795 x 1418 km, 63.4° (Epoch: 02 October)

Event Time Altitude Azimuth Distance (km) Brightness Sun altitude
Rises 18:46:42 0° 317° (NW) 3,971 7.9 -27.9°
Reaches altitude 10° 18:49:18 10° 313° (NW) 3,093 7.1 -28.2°
Maximum altitude 18:56:39 58° 237° (WSW) 1,478 4.4 -29.1°
Enters shadow 18:58:45 46° 190° (S) 1,702 4.4 -29.4°
